Location: Newark
(54.2500°N, 9.1833°E)
Time: 21:08:36
(UTC+00:00)

Vanguard 2 - Visible Passes

Search period start: 06 December 2019 00:00
Search period end: 16 December 2019 00:00
Orbit: 553 x 2938 km, 32.9° (Epoch: 06 December)

Date Brightness Start Highest point End Pass type
(mag) Time Alt. Az. Time Alt. Az. Time Alt. Az.
06 Dec 11.6 00:44:09 17° SE 00:44:09 17° SE 00:51:25 10° ESE visible
06 Dec 11.1 02:45:35 25° S 02:50:59 29° SSE 03:03:23 10° ESE visible
06 Dec 11.0 04:47:00 11° WSW 05:00:30 32° S 05:11:47 10° SE visible
07 Dec 11.4 01:01:07 21° SE 01:01:07 21° SE 01:10:16 10° ESE visible
07 Dec 11.1 03:02:32 26° SSW 03:08:23 32° S 03:21:08 10° ESE visible
07 Dec 11.1 05:03:59 10° WSW 05:17:53 31° SSW 05:29:03 10° SE visible
08 Dec 11.3 01:18:01 25° SE 01:18:01 25° SE 01:28:38 10° ESE visible
08 Dec 11.0 03:19:25 27° SSW 03:25:47 33° S 03:38:46 10° ESE visible
08 Dec 11.1 05:21:41 10° WSW 05:35:11 29° SSW 05:46:09 10° SSE visible
09 Dec 11.1 01:34:51 28° SSE 01:34:51 28° SSE 01:46:41 10° ESE visible
09 Dec 11.0 03:36:15 26° SW 03:43:11 34° S 03:56:16 10° SE visible
09 Dec 11.2 05:39:34 10° WSW 05:52:26 27° SSW 06:03:02 10° SSE visible
09 Dec 11.8 23:50:15 12° ESE 23:50:15 12° ESE 23:52:05 10° ESE visible
10 Dec 11.0 01:51:40 31° SSE 01:51:40 31° SSE 02:04:34 10° ESE visible
10 Dec 11.0 03:53:04 25° SW 04:00:34 33° S 04:13:37 10° SE visible
10 Dec 11.3 05:57:38 10° WSW 06:09:35 23° SSW 06:19:38 10° SSE visible
11 Dec 11.6 00:07:02 16° ESE 00:07:02 16° ESE 00:10:45 10° ESE visible
11 Dec 11.0 02:08:26 33° SSE 02:08:26 33° SSE 02:22:16 10° ESE visible
11 Dec 11.0 04:09:50 23° SW 04:17:56 32° SSW 04:30:49 10° SE visible
11 Dec 11.4 06:16:02 10° WSW 06:26:39 20° SW 06:35:50 10° S visible
12 Dec 11.5 00:23:48 19° ESE 00:23:48 19° ESE 00:29:01 10° ESE visible
12 Dec 10.9 02:25:12 34° S 02:25:34 34° S 02:39:50 10° ESE visible
12 Dec 11.1 04:26:36 20° SW 04:35:15 30° SSW 04:47:49 10° SSE visible
12 Dec 11.5 06:34:57 10° WSW 06:43:38 16° SW 06:51:24 10° S visible
13 Dec 11.4 00:40:33 22° SE 00:40:33 22° SE 00:47:01 10° ESE visible
13 Dec 10.9 02:41:58 34° S 02:42:58 34° S 02:57:17 10° SE visible
13 Dec 11.2 04:43:21 18° WSW 04:52:30 27° SSW 05:04:35 10° SSE visible
13 Dec 11.6 06:55:02 10° WSW 07:00:33 12° SW 07:05:41 10° SSW visible
14 Dec 11.3 00:57:19 25° SE 00:57:19 25° SE 01:04:50 10° ESE visible
14 Dec 10.9 02:58:43 33° SSW 03:00:21 34° S 03:14:33 10° SE visible
14 Dec 11.3 05:00:07 15° WSW 05:09:41 24° SSW 05:21:02 10° SSE visible
15 Dec 11.2 01:14:05 27° SE 01:14:05 27° SE 01:22:29 10° ESE visible
15 Dec 10.9 03:15:29 31° SSW 03:17:43 32° SSW 03:31:39 10° SE visible
15 Dec 11.4 05:16:53 12° WSW 05:26:47 20° SW 05:37:02 10° S visible
